Time,TemperatureF,DewpointF,PressureIn,WindDirection,WindDirectionDegrees,WindSpeedMPH,WindSpeedGustMPH,Humidity,HourlyPrecipIn,Conditions,Clouds,dailyrainin,SoftwareType,DateUTC
2013-02-10 00:01:00,31.0,15.0,29.65,WSW,237,3.0,10.0,52,0.00,,,0.00,,2013-02-10 07:01:00,
2013-02-10 00:11:00,31.0,15.0,29.65,WSW,237,3.0,10.0,52,0.00,,,0.00,,2013-02-10 07:11:00,
2013-02-10 00:21:00,30.0,15.0,29.65,SSW,210,2.0,10.0,52,0.00,,,0.00,,2013-02-10 07:21:00,
2013-02-10 00:31:00,30.0,15.0,29.66,SSW,195,2.0,6.0,52,0.00,,,0.00,,2013-02-10 07:31:00,
2013-02-10 00:41:00,30.0,15.0,29.66,SSW,195,2.0,6.0,52,0.00,,,0.00,,2013-02-10 07:41:00,
2013-02-10 00:51:00,30.0,15.0,29.66,SW,232,5.0,11.0,53,0.00,,,0.00,,2013-02-10 07:51:00,
2013-02-10 01:01:00,30.0,16.0,29.66,SW,227,4.0,11.0,55,0.00,,,0.00,,2013-02-10 08:01:00,
2013-02-10 01:11:00,30.0,16.0,29.66,SW,227,4.0,11.0,55,0.00,,,0.00,,2013-02-10 08:11:00,
2013-02-10 01:21:00,30.0,16.0,29.66,WSW,241,5.0,9.0,55,0.00,,,0.00,,2013-02-10 08:21:00,
2013-02-10 01:32:00,30.0,15.0,29.66,SSW,202,2.0,5.0,54,0.00,,,0.00,,2013-02-10 08:32:00,
2013-02-10 01:43:00,30.0,15.0,29.66,SSW,202,2.0,5.0,54,0.00,,,0.00,,2013-02-10 08:43:00,
2013-02-10 01:52:00,30.0,16.0,29.66,SW,236,4.0,7.0,55,0.00,,,0.00,,2013-02-10 08:52:00,
2013-02-10 02:02:00,30.0,15.0,29.66,SSW,213,2.0,4.0,54,0.00,,,0.00,,2013-02-10 09:02:00,
2013-02-10 02:11:00,30.0,15.0,29.66,SSW,213,2.0,4.0,54,0.00,,,0.00,,2013-02-10 09:11:00,
2013-02-10 02:21:00,29.0,14.0,29.66,South,175,2.0,4.0,53,0.00,,,0.00,,2013-02-10 09:21:00,
2013-02-10 02:31:00,29.0,14.0,29.66,SW,236,1.0,5.0,53,0.00,,,0.00,,2013-02-10 09:31:00,
2013-02-10 02:41:00,29.0,14.0,29.66,SW,236,1.0,5.0,53,0.00,,,0.00,,2013-02-10 09:41:00,
2013-02-10 02:52:00,29.0,14.0,29.66,WSW,253,1.0,2.0,52,0.00,,,0.00,,2013-02-10 09:52:00,
2013-02-10 03:01:00,29.0,14.0,29.66,SE,135,1.0,4.0,52,0.00,,,0.00,,2013-02-10 10:01:00,
2013-02-10 03:11:00,28.0,13.0,29.66,ESE,113,1.0,1.0,52,0.00,,,0.00,,2013-02-10 10:11:00,
2013-02-10 03:21:00,28.0,13.0,29.66,ESE,113,1.0,1.0,52,0.00,,,0.00,,2013-02-10 10:21:00,
2013-02-10 03:31:00,28.0,13.0,29.67,SE,144,1.0,1.0,52,0.00,,,0.00,,2013-02-10 10:31:00,
2013-02-10 03:41:00,28.0,13.0,29.67,SE,144,1.0,1.0,52,0.00,,,0.00,,2013-02-10 10:41:00,
2013-02-10 03:52:00,28.0,13.0,29.67,SW,223,1.0,2.0,52,0.00,,,0.00,,2013-02-10 10:52:00,
2013-02-10 04:01:00,28.0,13.0,29.67,SW,223,1.0,5.0,53,0.00,,,0.00,,2013-02-10 11:01:00,
2013-02-10 04:11:00,28.0,13.0,29.67,SW,223,1.0,5.0,53,0.00,,,0.00,,2013-02-10 11:11:00,
2013-02-10 04:21:00,27.0,12.0,29.67,South,191,1.0,1.0,53,0.00,,,0.00,,2013-02-10 11:21:00,
2013-02-10 04:32:00,28.0,14.0,29.66,SSE,153,1.0,3.0,54,0.00,,,0.00,,2013-02-10 11:32:00,
2013-02-10 04:42:00,28.0,14.0,29.66,SSE,153,1.0,3.0,54,0.00,,,0.00,,2013-02-10 11:42:00,
2013-02-10 04:52:00,28.0,14.0,29.67,SSW,200,1.0,3.0,54,0.00,,,0.00,,2013-02-10 11:52:00,
2013-02-10 05:01:00,28.0,14.0,29.66,SSE,162,2.0,4.0,54,0.00,,,0.00,,2013-02-10 12:01:00,
2013-02-10 05:12:00,28.0,14.0,29.66,SSE,162,2.0,4.0,54,0.00,,,0.00,,2013-02-10 12:12:00,
2013-02-10 05:21:00,28.0,14.0,29.67,SE,139,2.0,3.0,54,0.00,,,0.00,,2013-02-10 12:21:00,
2013-02-10 05:32:00,28.0,14.0,29.67,SSE,161,2.0,4.0,54,0.00,,,0.00,,2013-02-10 12:32:00,
2013-02-10 05:41:00,28.0,14.0,29.67,SSE,161,2.0,4.0,54,0.00,,,0.00,,2013-02-10 12:41:00,
2013-02-10 05:52:00,28.0,14.0,29.67,South,181,2.0,4.0,54,0.00,,,0.00,,2013-02-10 12:52:00,
2013-02-10 06:02:00,29.0,14.0,29.67,South,185,2.0,3.0,54,0.00,,,0.00,,2013-02-10 13:02:00,
2013-02-10 06:11:00,29.0,14.0,29.67,South,185,2.0,3.0,54,0.00,,,0.00,,2013-02-10 13:11:00,
2013-02-10 06:21:00,28.0,14.0,29.67,South,175,2.0,4.0,54,0.00,,,0.00,,2013-02-10 13:21:00,
2013-02-10 06:31:00,28.0,14.0,29.68,SE,127,3.0,5.0,55,0.00,,,0.00,,2013-02-10 13:31:00,
2013-02-10 06:41:00,28.0,14.0,29.68,SE,127,3.0,5.0,55,0.00,,,0.00,,2013-02-10 13:41:00,
2013-02-10 06:52:00,28.0,14.0,29.68,SE,132,2.0,3.0,55,0.00,,,0.00,,2013-02-10 13:52:00,
2013-02-10 07:02:00,27.0,14.0,29.69,SSE,150,4.0,5.0,57,0.00,,,0.00,,2013-02-10 14:02:00,
2013-02-10 07:11:00,27.0,14.0,29.69,SSE,150,4.0,5.0,57,0.00,,,0.00,,2013-02-10 14:11:00,
2013-02-10 07:21:00,27.0,13.0,29.69,SSE,163,3.0,5.0,56,0.00,,,0.00,,2013-02-10 14:21:00,
2013-02-10 07:31:00,27.0,13.0,29.70,SE,146,2.0,5.0,56,0.00,,,0.00,,2013-02-10 14:31:00,
2013-02-10 07:41:00,27.0,13.0,29.70,SE,146,2.0,5.0,56,0.00,,,0.00,,2013-02-10 14:41:00,
2013-02-10 07:52:00,27.0,14.0,29.71,SE,139,2.0,3.0,57,0.00,,,0.00,,2013-02-10 14:52:00,
2013-02-10 08:01:00,27.0,14.0,29.71,ESE,121,1.0,3.0,57,0.00,,,0.00,,2013-02-10 15:01:00,
2013-02-10 08:11:00,27.0,14.0,29.71,ESE,121,1.0,3.0,57,0.00,,,0.00,,2013-02-10 15:11:00,
2013-02-10 08:21:00,27.0,14.0,29.71,SSE,158,2.0,4.0,57,0.00,,,0.00,,2013-02-10 15:21:00,
2013-02-10 08:32:00,28.0,15.0,29.72,ESE,108,4.0,5.0,57,0.00,,,0.00,,2013-02-10 15:32:00,
2013-02-10 08:42:00,28.0,15.0,29.72,ESE,108,4.0,5.0,57,0.00,,,0.00,,2013-02-10 15:42:00,
2013-02-10 08:52:00,29.0,15.0,29.73,SE,128,3.0,4.0,56,0.00,,,0.00,,2013-02-10 15:52:00,
2013-02-10 09:02:00,30.0,16.0,29.73,SE,146,3.0,6.0,55,0.00,,,0.00,,2013-02-10 16:02:00,
2013-02-10 09:11:00,32.0,17.0,29.73,South,170,4.0,6.0,53,0.00,,,0.00,,2013-02-10 16:11:00,
2013-02-10 09:22:00,32.0,17.0,29.73,South,170,4.0,6.0,53,0.00,,,0.00,,2013-02-10 16:22:00,
2013-02-10 09:32:00,35.0,18.0,29.73,SSW,192,4.0,7.0,50,0.00,,,0.00,,2013-02-10 16:32:00,
2013-02-10 09:42:00,36.0,18.0,29.73,SW,216,6.0,7.0,48,0.00,,,0.00,,2013-02-10 16:42:00,
2013-02-10 09:52:00,36.0,18.0,29.73,SW,216,6.0,7.0,48,0.00,,,0.00,,2013-02-10 16:52:00,
2013-02-10 10:01:00,38.0,19.0,29.74,SSW,196,4.0,7.0,45,0.00,,,0.00,,2013-02-10 17:01:00,
2013-02-10 10:21:00,39.0,19.0,29.74,WSW,244,5.0,11.0,44,0.00,,,0.00,,2013-02-10 17:21:00,
2013-02-10 10:32:00,40.0,19.0,29.73,SW,236,5.0,12.0,42,0.00,,,0.00,,2013-02-10 17:32:00,
2013-02-10 10:42:00,41.0,18.0,29.73,WSW,242,5.0,11.0,39,0.00,,,0.00,,2013-02-10 17:42:00,
2013-02-10 10:52:00,41.0,18.0,29.73,WSW,242,5.0,11.0,39,0.00,,,0.00,,2013-02-10 17:52:00,
2013-02-10 11:02:00,42.0,16.0,29.73,West,280,5.0,9.0,35,0.00,,,0.00,,2013-02-10 18:02:00,
2013-02-10 11:11:00,42.0,17.0,29.73,SW,235,7.0,10.0,36,0.00,,,0.00,,2013-02-10 18:11:00,
2013-02-10 11:21:00,42.0,17.0,29.73,SW,235,7.0,10.0,36,0.00,,,0.00,,2013-02-10 18:21:00,
2013-02-10 11:32:00,42.0,18.0,29.73,SW,232,4.0,9.0,37,0.00,,,0.00,,2013-02-10 18:32:00,
2013-02-10 11:42:00,42.0,18.0,29.73,SW,232,4.0,9.0,37,0.00,,,0.00,,2013-02-10 18:42:00,
2013-02-10 11:52:00,43.0,18.0,29.72,SSW,204,3.0,9.0,36,0.00,,,0.00,,2013-02-10 18:52:00,
2013-02-10 12:01:00,44.0,17.0,29.72,WSW,238,7.0,9.0,34,0.00,,,0.00,,2013-02-10 19:01:00,
2013-02-10 12:11:00,43.0,17.0,29.71,SW,216,7.0,10.0,34,0.00,,,0.00,,2013-02-10 19:11:00,
2013-02-10 12:22:00,43.0,17.0,29.71,SW,216,7.0,10.0,34,0.00,,,0.00,,2013-02-10 19:22:00,
2013-02-10 12:32:00,43.0,16.0,29.71,SW,216,7.0,11.0,33,0.00,,,0.00,,2013-02-10 19:32:00,
2013-02-10 12:42:00,43.0,16.0,29.70,WSW,247,7.0,9.0,33,0.00,,,0.00,,2013-02-10 19:42:00,
2013-02-10 12:52:00,43.0,16.0,29.70,WSW,247,7.0,9.0,33,0.00,,,0.00,,2013-02-10 19:52:00,
2013-02-10 13:02:00,43.0,16.0,29.70,WSW,251,6.0,13.0,33,0.00,,,0.00,,2013-02-10 20:02:00,
2013-02-10 13:11:00,43.0,16.0,29.70,WSW,251,6.0,13.0,33,0.00,,,0.00,,2013-02-10 20:11:00,
2013-02-10 13:21:00,44.0,17.0,29.69,SSW,202,4.0,9.0,33,0.00,,,0.00,,2013-02-10 20:21:00,
2013-02-10 13:32:00,45.0,17.0,29.68,WSW,243,6.0,11.0,32,0.00,,,0.00,,2013-02-10 20:32:00,
2013-02-10 13:42:00,45.0,16.0,29.68,West,271,4.0,10.0,31,0.00,,,0.00,,2013-02-10 20:42:00,
2013-02-10 13:52:00,45.0,16.0,29.68,West,271,4.0,10.0,31,0.00,,,0.00,,2013-02-10 20:52:00,
2013-02-10 14:02:00,46.0,16.0,29.68,SW,233,7.0,10.0,30,0.00,,,0.00,,2013-02-10 21:02:00,
2013-02-10 14:21:00,46.0,17.0,29.68,SSW,199,4.0,9.0,31,0.00,,,0.00,,2013-02-10 21:21:00,
2013-02-10 14:32:00,46.0,16.0,29.67,WSW,239,4.0,8.0,30,0.00,,,0.00,,2013-02-10 21:32:00,
2013-02-10 14:42:00,45.0,15.0,29.67,South,186,3.0,6.0,30,0.00,,,0.00,,2013-02-10 21:42:00,
2013-02-10 14:52:00,45.0,15.0,29.67,South,186,3.0,6.0,30,0.00,,,0.00,,2013-02-10 21:52:00,
2013-02-10 15:01:00,45.0,14.0,29.67,West,278,4.0,11.0,28,0.00,,,0.00,,2013-02-10 22:01:00,
2013-02-10 15:11:00,46.0,15.0,29.67,SSW,208,5.0,11.0,28,0.00,,,0.00,,2013-02-10 22:11:00,
2013-02-10 15:21:00,46.0,15.0,29.67,SSW,208,5.0,11.0,28,0.00,,,0.00,,2013-02-10 22:21:00,
2013-02-10 15:32:00,46.0,12.0,29.67,WSW,244,7.0,10.0,25,0.00,,,0.00,,2013-02-10 22:32:00,
2013-02-10 15:42:00,47.0,15.0,29.67,SSW,213,6.0,9.0,27,0.00,,,0.00,,2013-02-10 22:42:00,
2013-02-10 15:52:00,47.0,15.0,29.67,SSW,213,6.0,9.0,27,0.00,,,0.00,,2013-02-10 22:52:00,
2013-02-10 16:02:00,46.0,14.0,29.67,SSW,192,4.0,10.0,27,0.00,,,0.00,,2013-02-10 23:02:00,
2013-02-10 16:11:00,46.0,14.0,29.67,SSW,192,4.0,10.0,27,0.00,,,0.00,,2013-02-10 23:11:00,
2013-02-10 16:22:00,45.0,13.0,29.68,WSW,237,7.0,13.0,27,0.00,,,0.00,,2013-02-10 23:22:00,
2013-02-10 16:32:00,45.0,14.0,29.68,SW,233,5.0,8.0,28,0.00,,,0.00,,2013-02-10 23:32:00,
2013-02-10 16:42:00,44.0,10.0,29.68,West,275,7.0,11.0,25,0.00,,,0.00,,2013-02-10 23:42:00,
2013-02-10 16:52:00,44.0,10.0,29.68,West,275,7.0,11.0,25,0.00,,,0.00,,2013-02-10 23:52:00,
2013-02-10 17:02:00,43.0,12.0,29.68,SW,230,5.0,8.0,28,0.00,,,0.00,,2013-02-11 00:02:00,
2013-02-10 17:11:00,43.0,12.0,29.68,WSW,249,4.0,6.0,28,0.00,,,0.00,,2013-02-11 00:11:00,
2013-02-10 17:22:00,43.0,12.0,29.68,WSW,249,4.0,6.0,28,0.00,,,0.00,,2013-02-11 00:22:00,
2013-02-10 17:32:00,42.0,12.0,29.68,West,276,3.0,7.0,29,0.00,,,0.00,,2013-02-11 00:32:00,
2013-02-10 17:42:00,41.0,11.0,29.68,WSW,238,2.0,7.0,29,0.00,,,0.00,,2013-02-11 00:42:00,
2013-02-10 17:52:00,41.0,11.0,29.68,WSW,238,2.0,7.0,29,0.00,,,0.00,,2013-02-11 00:52:00,
2013-02-10 18:01:00,41.0,11.0,29.68,SW,216,3.0,5.0,29,0.00,,,0.00,,2013-02-11 01:01:00,
2013-02-10 18:11:00,41.0,11.0,29.68,SW,216,3.0,5.0,29,0.00,,,0.00,,2013-02-11 01:11:00,
2013-02-10 18:21:00,40.0,10.0,29.69,WSW,252,1.0,3.0,29,0.00,,,0.00,,2013-02-11 01:21:00,
2013-02-10 18:32:00,40.0,11.0,29.69,SW,235,1.0,2.0,30,0.00,,,0.00,,2013-02-11 01:32:00,
2013-02-10 18:41:00,39.0,10.0,29.70,SW,220,1.0,2.0,30,0.00,,,0.00,,2013-02-11 01:41:00,
2013-02-10 18:52:00,39.0,10.0,29.70,SW,220,1.0,2.0,30,0.00,,,0.00,,2013-02-11 01:52:00,
2013-02-10 19:01:00,38.0,10.0,29.70,SSW,203,0.0,1.0,31,0.00,,,0.00,,2013-02-11 02:01:00,
2013-02-10 19:11:00,38.0,10.0,29.70,SSW,203,0.0,1.0,31,0.00,,,0.00,,2013-02-11 02:11:00,
2013-02-10 19:21:00,38.0,10.0,29.71,SW,225,0.0,1.0,31,0.00,,,0.00,,2013-02-11 02:21:00,
2013-02-10 19:31:00,37.0,10.0,29.71,ESE,113,0.0,1.0,32,0.00,,,0.00,,2013-02-11 02:31:00,
2013-02-10 19:42:00,36.0,10.0,29.71,ESE,113,1.0,1.0,33,0.00,,,0.00,,2013-02-11 02:42:00,
2013-02-10 19:52:00,36.0,10.0,29.71,ESE,113,1.0,1.0,33,0.00,,,0.00,,2013-02-11 02:52:00,
2013-02-10 20:01:00,36.0,10.0,29.71,East,90,1.0,1.0,34,0.00,,,0.00,,2013-02-11 03:01:00,
2013-02-10 20:11:00,35.0,10.0,29.71,East,90,1.0,1.0,35,0.00,,,0.00,,2013-02-11 03:11:00,
2013-02-10 20:21:00,35.0,10.0,29.71,East,90,1.0,1.0,35,0.00,,,0.00,,2013-02-11 03:21:00,
2013-02-10 20:31:00,34.0,10.0,29.71,East,90,0.0,1.0,36,0.00,,,0.00,,2013-02-11 03:31:00,
2013-02-10 20:42:00,34.0,10.0,29.72,East,90,1.0,2.0,36,0.00,,,0.00,,2013-02-11 03:42:00,
2013-02-10 20:52:00,34.0,10.0,29.72,East,90,1.0,2.0,36,0.00,,,0.00,,2013-02-11 03:52:00,
2013-02-10 21:01:00,33.0,10.0,29.72,NE,45,1.0,1.0,37,0.00,,,0.00,,2013-02-11 04:01:00,
2013-02-10 21:11:00,33.0,10.0,29.72,NE,45,1.0,1.0,37,0.00,,,0.00,,2013-02-11 04:11:00,
2013-02-10 21:21:00,33.0,10.0,29.71,ENE,68,1.0,2.0,37,0.00,,,0.00,,2013-02-11 04:21:00,
2013-02-10 21:31:00,33.0,10.0,29.72,East,90,1.0,1.0,38,0.00,,,0.00,,2013-02-11 04:31:00,
2013-02-10 21:42:00,32.0,9.0,29.73,East,90,1.0,1.0,38,0.00,,,0.00,,2013-02-11 04:42:00,
2013-02-10 21:52:00,32.0,9.0,29.73,East,90,1.0,1.0,38,0.00,,,0.00,,2013-02-11 04:52:00,
2013-02-10 22:01:00,32.0,9.0,29.73,ENE,68,1.0,1.0,38,0.00,,,0.00,,2013-02-11 05:01:00,
2013-02-10 22:11:00,32.0,11.0,29.74,North,354,1.0,3.0,41,0.00,,,0.00,,2013-02-11 05:11:00,
2013-02-10 22:22:00,32.0,11.0,29.74,North,354,1.0,3.0,41,0.00,,,0.00,,2013-02-11 05:22:00,
2013-02-10 22:31:00,33.0,14.0,29.75,NNW,345,2.0,4.0,45,0.00,,,0.00,,2013-02-11 05:31:00,
2013-02-10 22:42:00,33.0,19.0,29.75,NNW,337,4.0,7.0,56,0.00,,,0.00,,2013-02-11 05:42:00,
2013-02-10 22:52:00,33.0,19.0,29.75,NNW,337,4.0,7.0,56,0.00,,,0.00,,2013-02-11 05:52:00,
2013-02-10 23:02:00,32.0,20.0,29.75,North,0,3.0,6.0,61,0.00,,,0.00,,2013-02-11 06:02:00,
2013-02-10 23:21:00,32.0,21.0,29.75,North,2,2.0,5.0,64,0.00,,,0.00,,2013-02-11 06:21:00,
2013-02-10 23:32:00,31.0,19.0,29.75,NNE,23,1.0,4.0,61,0.00,,,0.00,,2013-02-11 06:32:00,
2013-02-10 23:42:00,31.0,20.0,29.75,North,5,1.0,3.0,62,0.00,,,0.00,,2013-02-11 06:42:00,
2013-02-10 23:52:00,31.0,20.0,29.75,North,5,1.0,3.0,62,0.00,,,0.00,,2013-02-11 06:52:00,